This is the latest recevied weather packets stored in our database for station/object N5SNT-2. If no packets are shown the sender has not sent any weather packets the latest 10 day(s).
| Time | Temp. | Humidity | Pressure | Rain* | Wind** | Luminosity | Snow |
|---|---|---|---|---|---|---|---|
| 1777838243 | 25° C | 44% | 1022 hPa | 0 mm | - | 921 W/m² | - |
| 1777837943 | 25° C | 40% | 1022 hPa | 0 mm | - | 913 W/m² | - |
| 1777837643 | 25° C | 41% | 1022 hPa | 0 mm | - | 922 W/m² | - |
| 1777837343 | 24.44° C | 40% | 1023 hPa | 0 mm | - | 926 W/m² | - |
| 1777837044 | 24.44° C | 41% | 1022 hPa | 0 mm | - | 926 W/m² | - |
| 1777836743 | 24.44° C | 44% | 1023 hPa | 0 mm | - | 932 W/m² | - |
| 1777836443 | 25° C | 43% | 1023 hPa | 0 mm | - | 931 W/m² | - |
| 1777836144 | 24.44° C | 41% | 1023 hPa | 0 mm | - | 936 W/m² | - |
| 1777835843 | 23.89° C | 44% | 1023 hPa | 0 mm | - | 943 W/m² | - |
| 1777835544 | 23.89° C | 43% | 1023 hPa | 0 mm | - | 942 W/m² | - |
| 1777835243 | 24.44° C | 41% | 1023 hPa | 0 mm | - | 946 W/m² | - |
| 1777834945 | 25° C | 42% | 1023 hPa | 0 mm | - | 953 W/m² | - |
| 1777834643 | 23.89° C | 47% | 1023 hPa | 0 mm | - | 952 W/m² | - |
| 1777834344 | 23.89° C | 44% | 1023 hPa | 0 mm | - | 953 W/m² | - |
| 1777834044 | 24.44° C | 46% | 1024 hPa | 0 mm | - | 940 W/m² | - |
| 1777833743 | 23.89° C | 45% | 1024 hPa | 0 mm | - | 948 W/m² | - |
| 1777833443 | 23.89° C | 45% | 1023 hPa | 0 mm | - | 941 W/m² | - |
| 1777833144 | 23.33° C | 47% | 1024 hPa | 0 mm | - | 959 W/m² | - |
| 1777832843 | 23.89° C | 47% | 1024 hPa | 0 mm | - | 989 W/m² | - |
| 1777832543 | 23.33° C | 47% | 1024 hPa | 0 mm | - | 940 W/m² | - |
| 1777832243 | 23.33° C | 46% | 1024 hPa | 0 mm | - | 941 W/m² | - |
| 1777831944 | 23.33° C | 46% | 1024 hPa | 0 mm | - | 935 W/m² | - |
| 1777831643 | 22.78° C | 46% | 1024 hPa | 0 mm | - | 939 W/m² | - |
| 1777831344 | 23.89° C | 45% | 1024 hPa | 0 mm | - | 923 W/m² | - |
| 1777831043 | 23.33° C | 48% | 1024 hPa | 0 mm | - | 935 W/m² | - |
* Rain latest hour (hover to see other rain measurements)
** Current wind speed in m/s (hover to see current wind gust speed)